Time,TemperatureF,DewpointF,PressureIn,WindDirection,WindDirectionDegrees,WindSpeedMPH,WindSpeedGustMPH,Humidity,HourlyPrecipIn,Conditions,Clouds,dailyrainin,SolarRadiationWatts/m^2,SoftwareType,DateUTC
2013-01-15 00:06:00,64.6,61.0,30.13,SSE,162,0.0,1.0,88,0.00,,,0.00,0,weatherlink.com 1.10,2013-01-15 05:06:00,
2013-01-15 00:21:00,63.8,61.0,30.13,SSE,162,0.0,0.0,89,0.00,,,0.00,0,weatherlink.com 1.10,2013-01-15 05:21:00,
2013-01-15 00:36:00,62.4,60.0,30.14,SSE,162,0.0,0.0,90,0.00,,,0.00,0,weatherlink.com 1.10,2013-01-15 05:36:00,
2013-01-15 00:51:00,62.9,60.0,30.15,SE,136,0.0,1.0,91,0.00,,,0.00,0,weatherlink.com 1.10,2013-01-15 05:51:00,
2013-01-15 01:06:00,62.3,60.0,30.15,NE,41,0.0,4.0,92,0.00,,,0.00,0,weatherlink.com 1.10,2013-01-15 06:06:00,
2013-01-15 01:21:00,59.7,56.0,30.16,North,360,1.0,4.0,87,0.00,,,0.00,0,weatherlink.com 1.10,2013-01-15 06:21:00,
2013-01-15 01:37:00,56.8,53.0,30.18,NW,322,2.0,8.0,87,0.00,,,0.00,0,weatherlink.com 1.10,2013-01-15 06:37:00,
2013-01-15 01:52:00,54.2,51.0,30.18,North,351,4.0,8.0,89,0.00,,,0.00,0,weatherlink.com 1.10,2013-01-15 06:52:00,
2013-01-15 02:07:00,52.1,49.0,30.18,ENE,59,0.0,8.0,90,0.00,,,0.00,0,weatherlink.com 1.10,2013-01-15 07:07:00,
2013-01-15 02:22:00,51.0,49.0,30.18,North,5,1.0,5.0,91,0.00,,,0.00,0,weatherlink.com 1.10,2013-01-15 07:22:00,
2013-01-15 02:37:00,50.3,48.0,30.19,NNW,333,1.0,6.0,92,0.00,,,0.00,0,weatherlink.com 1.10,2013-01-15 07:37:00,
2013-01-15 02:52:00,49.6,47.0,30.20,North,360,0.0,6.0,92,0.00,,,0.00,0,weatherlink.com 1.10,2013-01-15 07:52:00,
2013-01-15 03:07:00,49.1,47.0,30.19,NE,41,1.0,6.0,92,0.00,,,0.00,0,weatherlink.com 1.10,2013-01-15 08:07:00,
2013-01-15 03:22:00,48.6,47.0,30.19,NE,47,1.0,8.0,93,0.00,,,0.00,0,weatherlink.com 1.10,2013-01-15 08:22:00,
2013-01-15 03:37:00,48.3,46.0,30.18,NW,306,2.0,7.0,92,0.00,,,0.00,0,weatherlink.com 1.10,2013-01-15 08:37:00,
2013-01-15 03:52:00,48.2,46.0,30.18,NE,47,5.0,10.0,93,0.00,,,0.00,0,weatherlink.com 1.10,2013-01-15 08:52:00,
2013-01-15 04:07:00,47.9,46.0,30.19,North,355,1.0,7.0,93,0.00,,,0.00,0,weatherlink.com 1.10,2013-01-15 09:07:00,
2013-01-15 04:22:00,47.7,46.0,30.19,NW,313,0.0,6.0,93,0.00,,,0.00,0,weatherlink.com 1.10,2013-01-15 09:22:00,
2013-01-15 04:37:00,47.4,46.0,30.18,NE,42,1.0,9.0,93,0.00,,,0.00,0,weatherlink.com 1.10,2013-01-15 09:37:00,
2013-01-15 04:52:00,46.9,45.0,30.17,North,5,0.0,8.0,93,0.00,,,0.00,0,weatherlink.com 1.10,2013-01-15 09:52:00,
2013-01-15 05:25:00,46.2,45.0,30.16,NE,44,2.0,8.0,95,0.00,,,0.00,0,weatherlink.com 1.10,2013-01-15 10:25:00,
2013-01-15 05:37:00,46.2,45.0,30.16,North,360,2.0,5.0,95,0.00,,,0.00,0,weatherlink.com 1.10,2013-01-15 10:37:00,
2013-01-15 05:52:00,46.2,45.0,30.16,NNE,27,0.0,5.0,95,0.00,,,0.00,0,weatherlink.com 1.10,2013-01-15 10:52:00,
2013-01-15 06:07:00,46.2,45.0,30.15,NNE,15,6.0,6.0,95,0.00,,,0.00,0,weatherlink.com 1.10,2013-01-15 11:07:00,
2013-01-15 06:22:00,46.3,45.0,30.16,NE,55,5.0,7.0,95,0.00,,,0.00,0,weatherlink.com 1.10,2013-01-15 11:22:00,
2013-01-15 06:37:00,46.3,45.0,30.16,ENE,76,0.0,9.0,95,0.00,,,0.00,0,weatherlink.com 1.10,2013-01-15 11:37:00,
2013-01-15 06:52:00,46.3,45.0,30.17,East,86,5.0,5.0,95,0.00,,,0.00,0,weatherlink.com 1.10,2013-01-15 11:52:00,
2013-01-15 07:07:00,46.2,45.0,30.16,NE,55,2.0,5.0,95,0.00,,,0.00,0,weatherlink.com 1.10,2013-01-15 12:07:00,
2013-01-15 07:22:00,46.2,45.0,30.18,NNE,33,2.0,4.0,95,0.00,,,0.00,0,weatherlink.com 1.10,2013-01-15 12:22:00,
2013-01-15 07:37:00,46.3,45.0,30.18,East,81,2.0,4.0,95,0.00,,,0.00,0,weatherlink.com 1.10,2013-01-15 12:37:00,
2013-01-15 07:52:00,46.4,45.0,30.19,NW,321,1.0,4.0,95,0.00,,,0.00,0,weatherlink.com 1.10,2013-01-15 12:52:00,
2013-01-15 08:07:00,46.5,45.0,30.20,NE,51,0.0,1.0,95,0.00,,,0.00,5,weatherlink.com 1.10,2013-01-15 13:07:00,
2013-01-15 08:22:00,46.5,45.0,30.21,ENE,65,1.0,5.0,95,0.00,,,0.00,7,weatherlink.com 1.10,2013-01-15 13:22:00,
2013-01-15 08:37:00,46.5,45.0,30.21,NE,46,0.0,7.0,95,0.00,,,0.00,16,weatherlink.com 1.10,2013-01-15 13:37:00,
2013-01-15 08:52:00,46.5,45.0,30.23,NE,51,0.0,4.0,95,0.00,,,0.00,16,weatherlink.com 1.10,2013-01-15 13:52:00,
2013-01-15 09:08:00,46.6,45.0,30.23,NE,51,0.0,2.0,95,0.00,,,0.00,11,weatherlink.com 1.10,2013-01-15 14:08:00,
2013-01-15 09:23:00,46.3,45.0,30.23,NNE,31,2.0,4.0,95,0.00,,,0.00,16,weatherlink.com 1.10,2013-01-15 14:23:00,
2013-01-15 09:38:00,46.2,45.0,30.24,NNE,14,0.0,3.0,95,0.00,,,0.00,16,weatherlink.com 1.10,2013-01-15 14:38:00,
2013-01-15 09:53:00,46.0,45.0,30.24,NE,36,1.0,4.0,95,0.00,,,0.00,32,weatherlink.com 1.10,2013-01-15 14:53:00,
2013-01-15 10:08:00,45.8,45.0,30.24,NNW,340,1.0,4.0,95,0.00,,,0.00,54,weatherlink.com 1.10,2013-01-15 15:08:00,
2013-01-15 10:23:00,45.6,44.0,30.23,North,9,0.0,6.0,95,0.00,,,0.00,60,weatherlink.com 1.10,2013-01-15 15:23:00,
2013-01-15 10:38:00,45.5,45.0,30.23,NNE,13,0.0,4.0,96,0.00,,,0.00,60,weatherlink.com 1.10,2013-01-15 15:38:00,
2013-01-15 10:53:00,45.4,44.0,30.24,NE,40,2.0,5.0,95,0.00,,,0.00,72,weatherlink.com 1.10,2013-01-15 15:53:00,
2013-01-15 11:08:00,45.4,44.0,30.24,North,5,3.0,5.0,95,0.00,,,0.00,69,weatherlink.com 1.10,2013-01-15 16:08:00,
2013-01-15 11:23:00,45.5,44.0,30.23,NNE,24,1.0,5.0,95,0.00,,,0.00,67,weatherlink.com 1.10,2013-01-15 16:23:00,
2013-01-15 11:38:00,45.6,44.0,30.22,NNE,19,0.0,4.0,95,0.00,,,0.00,93,weatherlink.com 1.10,2013-01-15 16:38:00,
2013-01-15 11:53:00,45.6,44.0,30.22,NNE,20,0.0,7.0,95,0.00,,,0.00,79,weatherlink.com 1.10,2013-01-15 16:53:00,
2013-01-15 12:08:00,45.7,44.0,30.21,North,5,2.0,3.0,95,0.00,,,0.00,95,weatherlink.com 1.10,2013-01-15 17:08:00,
2013-01-15 12:23:00,45.9,44.0,30.21,ENE,63,3.0,5.0,94,0.00,,,0.00,86,weatherlink.com 1.10,2013-01-15 17:23:00,
2013-01-15 12:38:00,46.1,45.0,30.20,NE,38,3.0,5.0,94,0.00,,,0.00,86,weatherlink.com 1.10,2013-01-15 17:38:00,
2013-01-15 12:53:00,46.2,45.0,30.19,ESE,119,1.0,7.0,94,0.00,,,0.00,98,weatherlink.com 1.10,2013-01-15 17:53:00,
2013-01-15 13:08:00,46.3,44.0,30.19,NE,53,1.0,5.0,93,0.00,,,0.00,74,weatherlink.com 1.10,2013-01-15 18:08:00,
2013-01-15 13:23:00,46.5,45.0,30.18,East,90,1.0,8.0,93,0.00,,,0.00,130,weatherlink.com 1.10,2013-01-15 18:23:00,
2013-01-15 13:38:00,46.8,45.0,30.18,NNE,22,5.0,6.0,93,0.00,,,0.00,97,weatherlink.com 1.10,2013-01-15 18:38:00,
2013-01-15 13:53:00,46.8,45.0,30.17,NE,47,4.0,9.0,93,0.00,,,0.00,113,weatherlink.com 1.10,2013-01-15 18:53:00,
2013-01-15 14:08:00,47.0,45.0,30.18,NE,52,5.0,7.0,93,0.00,,,0.00,67,weatherlink.com 1.10,2013-01-15 19:08:00,
2013-01-15 14:23:00,46.8,45.0,30.17,NE,39,1.0,11.0,93,0.00,,,0.00,93,weatherlink.com 1.10,2013-01-15 19:23:00,
2013-01-15 14:38:00,47.0,45.0,30.18,NE,35,2.0,5.0,93,0.00,,,0.00,46,weatherlink.com 1.10,2013-01-15 19:38:00,
2013-01-15 14:53:00,47.0,45.0,30.17,ENE,74,3.0,5.0,94,0.00,,,0.00,53,weatherlink.com 1.10,2013-01-15 19:53:00,
2013-01-15 15:08:00,46.9,45.0,30.17,NNE,26,0.0,6.0,94,0.00,,,0.00,47,weatherlink.com 1.10,2013-01-15 20:08:00,
2013-01-15 15:23:00,46.9,45.0,30.17,ENE,67,3.0,10.0,94,0.00,,,0.00,47,weatherlink.com 1.10,2013-01-15 20:23:00,
2013-01-15 15:38:00,47.0,46.0,30.17,East,86,0.0,5.0,95,0.00,,,0.00,49,weatherlink.com 1.10,2013-01-15 20:38:00,
2013-01-15 15:53:00,46.9,46.0,30.18,NNE,26,0.0,5.0,95,0.00,,,0.00,39,weatherlink.com 1.10,2013-01-15 20:53:00,
2013-01-15 16:08:00,46.9,46.0,30.18,NE,42,5.0,8.0,95,0.00,,,0.00,23,weatherlink.com 1.10,2013-01-15 21:08:00,
2013-01-15 16:23:00,46.8,46.0,30.18,NE,52,4.0,5.0,95,0.00,,,0.00,14,weatherlink.com 1.10,2013-01-15 21:23:00,
2013-01-15 16:38:00,46.8,46.0,30.18,NE,49,1.0,4.0,95,0.00,,,0.00,12,weatherlink.com 1.10,2013-01-15 21:38:00,
2013-01-15 16:53:00,46.6,45.0,30.18,NE,45,3.0,6.0,95,0.00,,,0.00,7,weatherlink.com 1.10,2013-01-15 21:53:00,
2013-01-15 17:08:00,46.3,45.0,30.18,ENE,61,3.0,5.0,95,0.00,,,0.00,0,weatherlink.com 1.10,2013-01-15 22:08:00,
2013-01-15 17:23:00,46.0,45.0,30.17,East,82,2.0,6.0,96,0.00,,,0.00,0,weatherlink.com 1.10,2013-01-15 22:23:00,
2013-01-15 17:38:00,45.8,45.0,30.17,North,5,2.0,6.0,96,0.00,,,0.00,0,weatherlink.com 1.10,2013-01-15 22:38:00,
2013-01-15 17:53:00,45.6,45.0,30.17,NNE,29,1.0,8.0,96,0.00,,,0.00,0,weatherlink.com 1.10,2013-01-15 22:53:00,
2013-01-15 18:08:00,45.6,45.0,30.17,NNE,17,0.0,8.0,96,0.00,,,0.00,0,weatherlink.com 1.10,2013-01-15 23:08:00,
2013-01-15 18:23:00,45.5,45.0,30.17,East,98,3.0,9.0,96,0.00,,,0.00,0,weatherlink.com 1.10,2013-01-15 23:23:00,
2013-01-15 18:38:00,45.5,45.0,30.18,ENE,76,3.0,4.0,96,0.00,,,0.00,0,weatherlink.com 1.10,2013-01-15 23:38:00,
2013-01-15 18:53:00,45.6,45.0,30.18,NE,41,1.0,5.0,97,0.00,,,0.00,0,weatherlink.com 1.10,2013-01-15 23:53:00,
2013-01-15 19:08:00,45.6,45.0,30.18,NE,37,3.0,5.0,97,0.00,,,0.00,0,weatherlink.com 1.10,2013-01-16 00:08:00,
2013-01-15 19:23:00,45.6,45.0,30.16,ENE,68,0.0,9.0,97,0.00,,,0.00,0,weatherlink.com 1.10,2013-01-16 00:23:00,
2013-01-15 19:38:00,45.6,45.0,30.16,NE,45,0.0,5.0,97,0.00,,,0.00,0,weatherlink.com 1.10,2013-01-16 00:38:00,
2013-01-15 19:53:00,45.7,45.0,30.16,NNE,13,0.0,3.0,97,0.00,,,0.00,0,weatherlink.com 1.10,2013-01-16 00:53:00,
2013-01-15 20:08:00,45.7,45.0,30.16,ENE,64,1.0,4.0,97,0.00,,,0.00,0,weatherlink.com 1.10,2013-01-16 01:08:00,
2013-01-15 20:23:00,45.7,45.0,30.15,NE,36,4.0,8.0,97,0.00,,,0.00,0,weatherlink.com 1.10,2013-01-16 01:23:00,
2013-01-15 20:38:00,45.7,45.0,30.15,ENE,70,0.0,5.0,97,0.00,,,0.00,0,weatherlink.com 1.10,2013-01-16 01:38:00,
2013-01-15 20:53:00,45.7,45.0,30.14,ENE,78,2.0,4.0,97,0.00,,,0.00,0,weatherlink.com 1.10,2013-01-16 01:53:00,
2013-01-15 21:08:00,45.7,45.0,30.13,NE,36,0.0,3.0,97,0.00,,,0.00,0,weatherlink.com 1.10,2013-01-16 02:08:00,
2013-01-15 21:23:00,45.8,45.0,30.12,NE,40,1.0,3.0,97,0.01,,,0.01,0,weatherlink.com 1.10,2013-01-16 02:23:00,
2013-01-15 21:38:00,45.8,45.0,30.12,ENE,75,3.0,4.0,97,0.01,,,0.01,0,weatherlink.com 1.10,2013-01-16 02:38:00,
2013-01-15 21:53:00,45.8,45.0,30.12,ENE,71,0.0,3.0,97,0.01,,,0.01,0,weatherlink.com 1.10,2013-01-16 02:53:00,
2013-01-15 22:08:00,45.9,45.0,30.12,ENE,71,0.0,1.0,97,0.01,,,0.01,0,weatherlink.com 1.10,2013-01-16 03:08:00,
2013-01-15 22:23:00,46.0,45.0,30.12,ENE,71,0.0,1.0,97,0.00,,,0.01,0,weatherlink.com 1.10,2013-01-16 03:23:00,
2013-01-15 22:38:00,45.9,45.0,30.11,ENE,71,0.0,1.0,97,0.00,,,0.01,0,weatherlink.com 1.10,2013-01-16 03:38:00,
2013-01-15 22:53:00,45.9,45.0,30.10,ENE,77,0.0,3.0,97,0.00,,,0.01,0,weatherlink.com 1.10,2013-01-16 03:53:00,
2013-01-15 23:08:00,45.9,45.0,30.09,ESE,122,0.0,2.0,97,0.00,,,0.01,0,weatherlink.com 1.10,2013-01-16 04:08:00,
2013-01-15 23:23:00,45.9,45.0,30.08,ENE,63,1.0,4.0,97,0.00,,,0.01,0,weatherlink.com 1.10,2013-01-16 04:23:00,
2013-01-15 23:38:00,45.9,45.0,30.09,NE,36,0.0,3.0,97,0.00,,,0.01,0,weatherlink.com 1.10,2013-01-16 04:38:00,
2013-01-15 23:53:00,46.0,45.0,30.07,East,99,0.0,2.0,97,0.00,,,0.01,0,weatherlink.com 1.10,2013-01-16 04:53:00,